ASK504 LKMT-EPWA

Flight info

Callsign ASK504
Flight time 0h 37m
Altitude 23000
Route BAVOK T709 KOTEK DCT LOGDA
Aircraft B738/M-SDE2E3FGHIRWXY/LB1

Departure

Time 2026-05-07 12:22
Airport Leoš Janáček Airport Ostrava (LKMT)

Arrival

Time 2026-05-07 13:00
Airport Warsaw Chopin Airport (EPWA)
Time Latitude Longitude Altitude Speed Heading
2026-05-07 12:02 49.69587 18.12018 820 ft 0 kts 135°
2026-05-07 12:15 49.69599 18.11999 817 ft 3 kts 128°
2026-05-07 12:16 49.69611 18.11972 816 ft 3 kts 113°
2026-05-07 12:16 49.69616 18.11943 820 ft 3 kts 83°
2026-05-07 12:16 49.69611 18.11919 820 ft 1 kts 46°
2026-05-07 12:18 49.69611 18.11920 820 ft 1 kts 46°
2026-05-07 12:18 49.69635 18.11954 819 ft 8 kts 36°
2026-05-07 12:18 49.69698 18.11950 820 ft 10 kts 353°
2026-05-07 12:19 49.69756 18.12004 820 ft 10 kts 45°
2026-05-07 12:19 49.69808 18.12087 819 ft 11 kts 47°
2026-05-07 12:19 49.69867 18.12182 820 ft 13 kts 45°
2026-05-07 12:19 49.69935 18.12292 820 ft 17 kts 46°
2026-05-07 12:20 49.70019 18.12427 818 ft 14 kts 46°
2026-05-07 12:20 49.70095 18.12419 820 ft 12 kts 315°
2026-05-07 12:20 49.70153 18.12329 821 ft 12 kts 316°
2026-05-07 12:20 49.70212 18.12243 824 ft 11 kts 316°
2026-05-07 12:21 49.70263 18.12166 829 ft 7 kts 315°
2026-05-07 12:21 49.70275 18.12135 828 ft 3 kts 256°
2026-05-07 12:21 49.70259 18.12115 829 ft 3 kts 218°
2026-05-07 12:21 49.70208 18.12035 829 ft 36 kts 226°
2026-05-07 12:22 49.69863 18.11477 830 ft 107 kts 226°
2026-05-07 12:22 49.69202 18.10410 853 ft 163 kts 226°
2026-05-07 12:22 49.68376 18.09100 1538 ft 174 kts 227°
2026-05-07 12:22 49.67583 18.07811 2739 ft 155 kts 226°
2026-05-07 12:23 49.66845 18.06616 3481 ft 152 kts 226°
2026-05-07 12:23 49.66096 18.05403 3969 ft 161 kts 227°
2026-05-07 12:23 49.65273 18.04040 4203 ft 186 kts 232°
2026-05-07 12:23 49.64828 18.02091 4346 ft 209 kts 270°
2026-05-07 12:24 49.65366 17.99890 4515 ft 239 kts 306°
2026-05-07 12:24 49.66738 17.98232 4778 ft 264 kts 324°
2026-05-07 12:24 49.68327 17.96732 5364 ft 271 kts 325°
2026-05-07 12:24 49.69948 17.95237 6121 ft 271 kts 324°
2026-05-07 12:25 49.71546 17.93686 6905 ft 272 kts 323°
2026-05-07 12:25 49.73148 17.92067 7563 ft 278 kts 322°
2026-05-07 12:25 49.74772 17.90395 8245 ft 283 kts 322°
2026-05-07 12:25 49.76527 17.88944 8839 ft 294 kts 342°
2026-05-07 12:26 49.78588 17.88876 9545 ft 304 kts 13°
2026-05-07 12:26 49.80462 17.90380 10215 ft 312 kts 39°
2026-05-07 12:26 49.82133 17.92690 10460 ft 333 kts 43°
2026-05-07 12:26 49.83861 17.95261 10650 ft 355 kts 44°
2026-05-07 12:27 49.85681 17.98003 10915 ft 373 kts 44°
2026-05-07 12:27 49.87568 18.00822 11465 ft 380 kts 44°
2026-05-07 12:27 49.89490 18.03665 12182 ft 382 kts 44°
2026-05-07 12:27 49.91425 18.06505 12964 ft 384 kts 44°
2026-05-07 12:28 49.93380 18.09366 13670 ft 389 kts 44°
2026-05-07 12:28 49.95346 18.12241 14293 ft 394 kts 44°
2026-05-07 12:28 49.97354 18.15178 14915 ft 399 kts 44°
2026-05-07 12:28 49.99392 18.18163 15561 ft 404 kts 44°
2026-05-07 12:29 50.01384 18.21283 16182 ft 409 kts 50°
2026-05-07 12:29 50.03186 18.24735 16812 ft 413 kts 54°
2026-05-07 12:29 50.04920 18.28332 17418 ft 418 kts 55°
2026-05-07 12:29 50.06661 18.31990 18053 ft 424 kts 54°
2026-05-07 12:30 50.08441 18.35682 18589 ft 429 kts 54°
2026-05-07 12:30 50.10260 18.39395 19132 ft 433 kts 54°
2026-05-07 12:30 50.12109 18.43127 19705 ft 437 kts 54°
2026-05-07 12:30 50.13981 18.46891 20232 ft 442 kts 54°
2026-05-07 12:31 50.15875 18.50694 20735 ft 446 kts 54°
2026-05-07 12:31 50.17786 18.54542 21232 ft 451 kts 54°
2026-05-07 12:31 50.19712 18.58429 21725 ft 455 kts 54°
2026-05-07 12:31 50.21655 18.62359 22213 ft 459 kts 54°
2026-05-07 12:32 50.23605 18.66311 22723 ft 463 kts 55°
2026-05-07 12:32 50.25580 18.70320 22907 ft 470 kts 54°
2026-05-07 12:32 50.27595 18.74418 22919 ft 480 kts 54°
2026-05-07 12:32 50.29640 18.78580 22932 ft 484 kts 54°
2026-05-07 12:33 50.33719 18.86894 22929 ft 479 kts 54°
2026-05-07 12:33 50.35743 18.91029 22934 ft 477 kts 54°
2026-05-07 12:33 50.37755 18.95150 22938 ft 476 kts 54°
2026-05-07 12:34 50.39738 18.99220 22939 ft 476 kts 54°
2026-05-07 12:34 50.41746 19.03344 22940 ft 476 kts 54°
2026-05-07 12:34 50.43753 19.07474 22949 ft 477 kts 54°
2026-05-07 12:34 50.45727 19.11648 22937 ft 477 kts 59°
2026-05-07 12:35 50.47340 19.16176 22943 ft 474 kts 68°
2026-05-07 12:35 50.48491 19.20989 22936 ft 470 kts 78°
2026-05-07 12:35 50.49241 19.25972 22948 ft 469 kts 81°
2026-05-07 12:35 50.49971 19.30955 22929 ft 470 kts 80°
2026-05-07 12:36 50.50744 19.35949 22930 ft 470 kts 79°
2026-05-07 12:36 50.51540 19.40925 22932 ft 469 kts 79°
2026-05-07 12:36 50.52343 19.45887 22936 ft 469 kts 79°
2026-05-07 12:36 50.53144 19.50846 22923 ft 468 kts 79°
2026-05-07 12:37 50.53942 19.55800 22927 ft 467 kts 79°
2026-05-07 12:37 50.54733 19.60742 22929 ft 466 kts 79°
2026-05-07 12:37 50.55520 19.65681 22925 ft 465 kts 79°
2026-05-07 12:37 50.56302 19.70615 22937 ft 465 kts 79°
2026-05-07 12:38 50.57080 19.75542 22936 ft 465 kts 79°
2026-05-07 12:38 50.57858 19.80481 22930 ft 465 kts 79°
2026-05-07 12:38 50.58635 19.85431 22930 ft 466 kts 79°
2026-05-07 12:38 50.59410 19.90378 22928 ft 466 kts 79°
2026-05-07 12:39 50.60183 19.95332 22908 ft 466 kts 79°
2026-05-07 12:39 50.60955 20.00291 22922 ft 466 kts 79°
2026-05-07 12:39 50.61725 20.05252 22924 ft 466 kts 79°
2026-05-07 12:39 50.62492 20.10201 22930 ft 466 kts 79°
2026-05-07 12:40 50.63259 20.15172 22924 ft 466 kts 79°
2026-05-07 12:40 50.64192 20.20067 22910 ft 471 kts 67°
2026-05-07 12:40 50.66010 20.24361 22937 ft 474 kts 49°
2026-05-07 12:40 50.68507 20.27751 22918 ft 476 kts 31°
2026-05-07 12:41 50.71462 20.30073 22949 ft 474 kts 23°
2026-05-07 12:41 50.74499 20.32122 22931 ft 475 kts 22°
2026-05-07 12:41 50.77550 20.34126 22923 ft 475 kts 22°
2026-05-07 12:41 50.80600 20.36139 22920 ft 475 kts 22°
2026-05-07 12:42 50.83644 20.38179 22919 ft 475 kts 22°
2026-05-07 12:42 50.86685 20.40247 22923 ft 475 kts 22°
2026-05-07 12:42 50.89712 20.42331 22926 ft 475 kts 23°
2026-05-07 12:42 50.92704 20.44405 22907 ft 463 kts 23°
2026-05-07 12:43 50.95615 20.46432 22582 ft 453 kts 23°
2026-05-07 12:43 50.98461 20.48451 22247 ft 445 kts 24°
2026-05-07 12:43 51.01252 20.50508 21799 ft 439 kts 24°
2026-05-07 12:43 51.03989 20.52560 21294 ft 435 kts 24°
2026-05-07 12:44 51.06716 20.54614 20798 ft 432 kts 24°
2026-05-07 12:44 51.09420 20.56650 20316 ft 428 kts 24°
2026-05-07 12:44 51.12067 20.58638 19726 ft 424 kts 24°
2026-05-07 12:44 51.14708 20.60620 19066 ft 416 kts 24°
2026-05-07 12:45 51.17308 20.62569 18375 ft 411 kts 24°
2026-05-07 12:45 51.19875 20.64493 17598 ft 407 kts 24°
2026-05-07 12:45 51.22425 20.66405 16816 ft 403 kts 24°
2026-05-07 12:45 51.24948 20.68299 16049 ft 399 kts 24°
2026-05-07 12:46 51.27446 20.70176 15302 ft 395 kts 24°
2026-05-07 12:46 51.29924 20.72042 14561 ft 392 kts 24°
2026-05-07 12:46 51.32379 20.73891 13858 ft 388 kts 24°
2026-05-07 12:46 51.34807 20.75723 13083 ft 384 kts 24°
2026-05-07 12:47 51.37210 20.77539 12376 ft 378 kts 24°
2026-05-07 12:47 51.39549 20.79310 11843 ft 368 kts 24°
2026-05-07 12:47 51.41860 20.81060 11065 ft 366 kts 24°
2026-05-07 12:47 51.44128 20.82780 10756 ft 350 kts 24°
2026-05-07 12:48 51.46275 20.84411 10573 ft 333 kts 24°
2026-05-07 12:48 51.48309 20.85959 10426 ft 316 kts 23°
2026-05-07 12:48 51.50254 20.87439 10290 ft 304 kts 23°
2026-05-07 12:48 51.52143 20.88876 10176 ft 299 kts 23°
2026-05-07 12:49 51.54035 20.90314 9985 ft 303 kts 23°
2026-05-07 12:49 51.55950 20.91771 9593 ft 306 kts 23°
2026-05-07 12:49 51.57871 20.93235 9211 ft 306 kts 23°
2026-05-07 12:49 51.59787 20.94698 8876 ft 302 kts 23°
2026-05-07 12:50 51.61638 20.96115 8533 ft 295 kts 23°
2026-05-07 12:50 51.63473 20.97520 8213 ft 289 kts 23°
2026-05-07 12:50 51.65279 20.98904 7885 ft 285 kts 23°
2026-05-07 12:50 51.67051 21.00262 7630 ft 280 kts 23°
2026-05-07 12:51 51.68809 21.01611 7387 ft 279 kts 23°
2026-05-07 12:51 51.70561 21.02955 7140 ft 278 kts 23°
2026-05-07 12:51 51.72305 21.04295 6896 ft 277 kts 23°
2026-05-07 12:51 51.74034 21.05625 6658 ft 276 kts 23°
2026-05-07 12:52 51.75768 21.06960 6412 ft 276 kts 23°
2026-05-07 12:52 51.77500 21.08295 6168 ft 277 kts 23°
2026-05-07 12:52 51.79265 21.09654 5932 ft 282 kts 23°
2026-05-07 12:52 51.79487 21.09826 5899 ft 282 kts 23°
2026-05-07 12:53 51.80911 21.10925 5691 ft 281 kts 23°
2026-05-07 12:53 51.82666 21.12282 5443 ft 278 kts 23°
2026-05-07 12:53 51.84405 21.13627 5191 ft 276 kts 23°
2026-05-07 12:53 51.86134 21.14964 4934 ft 274 kts 22°
2026-05-07 12:54 51.87921 21.15659 4656 ft 266 kts 353°
2026-05-07 12:54 51.89723 21.15219 4454 ft 260 kts 347°
2026-05-07 12:54 51.91500 21.14796 4169 ft 255 kts 349°
2026-05-07 12:54 51.93239 21.14447 3929 ft 249 kts 350°
2026-05-07 12:55 51.94898 21.14141 3909 ft 232 kts 351°
2026-05-07 12:55 51.96465 21.13857 3877 ft 222 kts 348°
2026-05-07 12:55 51.97897 21.13087 3870 ft 213 kts 327°
2026-05-07 12:55 51.99159 21.11938 3777 ft 205 kts 329°
2026-05-07 12:56 52.00405 21.10880 3694 ft 206 kts 328°
2026-05-07 12:56 52.01683 21.09775 3435 ft 207 kts 328°
2026-05-07 12:56 52.02946 21.08670 3172 ft 205 kts 328°
2026-05-07 12:56 52.04191 21.07576 2912 ft 202 kts 328°
2026-05-07 12:57 52.05414 21.06501 2644 ft 197 kts 329°
2026-05-07 12:57 52.06608 21.05453 2375 ft 191 kts 329°
2026-05-07 12:57 52.07739 21.04461 2146 ft 178 kts 330°
2026-05-07 12:57 52.08789 21.03540 1876 ft 164 kts 331°
2026-05-07 12:58 52.09743 21.02700 1661 ft 149 kts 332°
2026-05-07 12:58 52.10626 21.01927 1474 ft 143 kts 332°
2026-05-07 12:58 52.11502 21.01159 1275 ft 144 kts 332°
2026-05-07 12:58 52.12374 21.00394 1082 ft 142 kts 331°
2026-05-07 12:59 52.13229 20.99644 896 ft 138 kts 330°
2026-05-07 12:59 52.14075 20.98902 716 ft 140 kts 330°
2026-05-07 12:59 52.14963 20.98124 530 ft 149 kts 330°
2026-05-07 12:59 52.15864 20.97334 350 ft 143 kts 330°
2026-05-07 13:00 52.16589 20.96700 339 ft 74 kts 333°
2026-05-07 13:00 52.16812 20.96532 337 ft 25 kts 346°
2026-05-07 13:00 52.16984 20.96512 337 ft 24 kts
2026-05-07 13:00 52.17080 20.96548 337 ft 9 kts 51°
2026-05-07 13:01 52.17086 20.96561 334 ft 0 kts 57°
2026-05-07 13:02 52.17087 20.96563 335 ft 1 kts 57°
2026-05-07 13:02 52.17096 20.96589 336 ft 7 kts 60°
2026-05-07 13:02 52.17122 20.96666 334 ft 8 kts 62°
2026-05-07 13:03 52.17148 20.96744 337 ft 6 kts 61°
2026-05-07 13:03 52.17164 20.96801 336 ft 5 kts 85°
2026-05-07 13:03 52.17131 20.96863 338 ft 7 kts 149°
2026-05-07 13:03 52.17097 20.96894 338 ft 9 kts 150°
2026-05-07 13:04 52.17042 20.96945 335 ft 9 kts 154°
2026-05-07 13:04 52.16986 20.96989 336 ft 9 kts 152°
2026-05-07 13:04 52.16937 20.97033 338 ft 5 kts 151°
2026-05-07 13:04 52.16924 20.97047 337 ft 2 kts 133°
2026-05-07 13:05 52.16927 20.97070 336 ft 2 kts 74°
2026-05-07 13:05 52.16937 20.97108 333 ft 5 kts 66°
2026-05-07 13:05 52.16949 20.97157 336 ft 3 kts 68°
2026-05-07 13:05 52.16954 20.97177 336 ft 1 kts 68°
2026-05-07 13:06 52.16956 20.97185 336 ft 1 kts 68°
2026-05-07 13:06 52.16957 20.97190 337 ft 0 kts 68°